Content
SEND FEEDBACK

Daily
Averages
Monthly
Summary
United States of America

PUT IN BAY, OHIO


Home > North America > United States > Ohio
Elevation: 561 feet     Latitude: 41 39N     Longitude: 082 48W

WEATHER
 
SELECT A DAY
Number of Records: 122,510;   Date Range: 12/10/00 - 7/30/14
 
SHARE

PRINT THIS DATA

[ ← Previous Day ]
WEATHER ALMANAC - AUGUST 1, 2013
[ Next Day → ]
[ °C ]   °F
Weather ElementAverageHighLow
Temperature69.8 °F78.4 °F (5:00 pm)64.2 °F (11:00 pm)
Dewpoint61.8 °F66 °F (2:00 pm)55.6 °F (4:00 pm)
Humidity76.5 %94 % (5:00 am)45 % (5:00 pm)
Barometer29.87 in29.89 in (10:00 pm)29.84 in (2:00 am)
Wind Speed5.9 mph10.4 mph (11:00 am)
Weather ElementAverage
Wind DirectionWSW (249.2 °)

Weather ElementTotal
Precipitation---
Cooling Degree Days6.3 (Base 65)
Growing Degree Days21.3 (Base 50)
Averaged from 25 records on August 1, 2013
WEATHER CONDITIONS BREAKOUT
WIND DIRECTION BREAKOUT
WEATHER BY HOUR - AUGUST 1, 2013
[ °C ]   °F
Local TimeTemperatureDewpointHumidityBarometerVisibilityWind DirectionWind SpeedGust SpeedPrecipitationEventsConditions
2:00 AM67.1 °F64.8 °F92 %29.84 inNW (310°)5.8 mph
3:00 AM65.8 °F63.7 °F93 %29.85 inNW (310°)5.8 mph
4:00 AM65.1 °F63.0 °F93 %29.84 inNW (310°)3.5 mph
5:00 AM64.4 °F62.6 °F94 %29.85 inWNW (300°)4.6 mph
6:00 AM64.8 °F62.8 °F93 %29.86 inWNW (290°)5.8 mph
7:00 AM65.3 °F63.0 °F92 %29.87 inWNW (290°)4.6 mph
8:00 AM65.8 °F62.8 °F90 %29.88 inWNW (290°)5.8 mph
8:00 AM66.0 °F63.0 °F86 %29.88 inWNW (290°)5.8 mph
9:00 AM66.2 °F62.6 °F88 %29.88 inWNW (290°)6.9 mph
10:00 AM67.6 °F63.5 °F87 %29.88 inWest (280°)8.1 mph
11:00 AM69.1 °F64.6 °F86 %29.88 inWest (270°)10.4 mph
12:00 PM70.7 °F63.5 °F78 %29.88 inWest (260°)9.2 mph
1:00 PM72.5 °F63.3 °F73 %29.88 inWest (270°)10.4 mph
2:00 PM75.0 °F66.0 °F67 %29.88 inWSW (240°)9.2 mph
2:00 PM75.0 °F66.0 °F73 %29.88 inWSW (240°)9.2 mph
3:00 PM76.5 °F64.8 °F67 %29.86 inWSW (240°)8.1 mph
4:00 PM77.5 °F55.6 °F47 %29.86 inNW (310°)6.9 mph
5:00 PM78.4 °F55.8 °F45 %29.85 inNW (310°)5.8 mph
6:00 PM76.8 °F60.4 °F57 %29.85 inSW (230°)6.9 mph
7:00 PM73.9 °F63.9 °F71 %29.86 inNW (320°)3.5 mph
8:00 PM71.0 °F56.0 °F50 %29.87 inNNE (30°)3.5 mph
8:00 PM71.2 °F56.3 °F59 %29.87 inNNE (30°)3.5 mph
9:00 PM68.4 °F59.5 °F73 %29.87 inCalm
10:00 PM66.6 °F59.5 °F78 %29.89 inWest (260°)2.3 mph
11:00 PM64.2 °F58.3 °F81 %29.89 inWest (260°)1.2 mph
Hourly data recorded from CXHA, located miles away from Put In Bay, Ohio







STORIES FROM OUR PARTNERS